Weather History for KGSH - January, 2013

Change the Weather History Date:

Monday, January 21, 2013

  Actual Average Record
Temperature  
Mean Temperature 14 °F -  
Max Temperature 19 °F 31 °F 50 °F (1964)
Min Temperature 8 °F 17 °F -24 °F (1984)
Degree Days  
Heating Degree Days 52    
Moisture  
Dew Point 2 °F    
Average Humidity 61    
Maximum Humidity 80    
Minimum Humidity 43    
Precipitation  
Precipitation 0.00 in - - ()
Sea Level Pressure  
Sea Level Pressure 30.13 in    
Wind  
Wind Speed 18 mph (West)    
Max Wind Speed 25 mph    
Max Gust Speed 37 mph    
Visibility 8 miles    
Events Snow    
Averages and records for this station are not official NWS values.
T = Trace of Precipitation, MM = Missing Value Source: NWS Daily Summary

Daily Weather History Graph

Daily Weather History Graph

Search for Another Location

Airport or City:

Trip Planner

Search our weather history database for the weather conditions in past years. The results will help you decide how hot, cold, wet, or windy it might be!

Date:

Astronomy

Jan. 21, 2013 Rise Set
Actual Time 8:03 AM EST 5:45 PM EST
Civil Twilight 7:33 AM EST 6:15 PM EST
Nautical Twilight 6:59 AM EST 6:49 PM EST
Astronomical Twilight 6:26 AM EST 7:22 PM EST
Moon 1:24 PM EST (1/21) 3:31 AM EST (1/21)
Length of Visible Light 10h 42m
Length of Day
9h 41m
Waxing Gibbous, 75% of the Moon is Illuminated
Jan 21
Waxing Gibbous
Jan 26
Full
Feb 3
Last Quarter
Feb 10
New
Feb 17
First Quarter

Hourly Weather History & Observations

Time (EST) Temp. Windchill Dew Point Humidity Pressure Visibility Wind Dir Wind Speed Gust Speed Precip Events Conditions
12:53 AM 19.0 °F 6.8 °F 8.1 °F 62% 30.17 in 10.0 mi WSW 11.5 mph - N/A   Overcast
1:53 AM 19.0 °F 4.5 °F 7.0 °F 59% 30.16 in 10.0 mi West 16.1 mph 20.7 mph N/A   Overcast
2:53 AM 18.0 °F 4.2 °F 5.0 °F 57% 30.16 in 10.0 mi West 13.8 mph 20.7 mph N/A   Overcast
3:53 AM 17.1 °F 2.5 °F 3.9 °F 56% 30.14 in 10.0 mi West 15.0 mph - N/A   Overcast
4:53 AM 17.1 °F 2.5 °F 3.9 °F 56% 30.12 in 10.0 mi West 15.0 mph - N/A   Overcast
5:53 AM 16.0 °F -0.4 °F 3.9 °F 59% 30.12 in 10.0 mi WSW 18.4 mph - N/A   Overcast
6:53 AM 15.1 °F -0.1 °F 3.9 °F 61% 30.11 in 10.0 mi West 15.0 mph - N/A   Mostly Cloudy
7:53 AM 15.1 °F -1.6 °F 3.0 °F 59% 30.11 in 10.0 mi West 18.4 mph - N/A   Overcast
8:53 AM 14.0 °F -3.4 °F 3.0 °F 62% 30.11 in 10.0 mi West 19.6 mph 24.2 mph N/A   Overcast
9:44 AM 12.2 °F -5.3 °F 3.2 °F 67% 30.08 in 10.0 mi West 18.4 mph 25.3 mph N/A   Overcast
9:53 AM 14.0 °F -4.7 °F 3.9 °F 64% 30.12 in 10.0 mi WSW 23.0 mph - N/A   Overcast
10:07 AM 14.0 °F -2.5 °F 5.0 °F 67% 30.08 in 10.0 mi West 17.3 mph 24.2 mph N/A   Overcast
10:53 AM 16.0 °F -1.3 °F 1.9 °F 54% 30.12 in 10.0 mi West 20.7 mph 29.9 mph N/A   Mostly Cloudy
11:12 AM 15.8 °F -2.3 °F 3.2 °F 58% 30.08 in 10.0 mi West 23.0 mph 32.2 mph 0.00 in   Scattered Clouds
11:53 AM 18.0 °F 2.6 °F 1.0 °F 48% 30.11 in 10.0 mi West 17.3 mph 31.1 mph 0.00 in   Mostly Cloudy
12:04 PM 15.8 °F -1.5 °F 6.8 °F 68% 30.07 in 1.8 mi West 20.7 mph 29.9 mph 0.00 in Snow Light Snow
12:10 PM 15.8 °F -0.6 °F 5.0 °F 62% 30.07 in 2.0 mi West 18.4 mph 26.5 mph 0.00 in Snow Light Snow
12:17 PM 15.8 °F -0.6 °F 5.0 °F 62% 30.07 in 8.0 mi West 18.4 mph 26.5 mph 0.00 in   Mostly Cloudy
12:53 PM 17.1 °F -0.6 °F -0.9 °F 45% 30.09 in 10.0 mi West 23.0 mph - 0.00 in   Mostly Cloudy
1:53 PM 17.1 °F -1.4 °F -2.0 °F 43% 30.09 in 10.0 mi West 25.3 mph 32.2 mph N/A   Overcast
2:53 PM 15.1 °F -3.7 °F -2.9 °F 45% 30.11 in 10.0 mi WNW 24.2 mph 36.8 mph N/A   Mostly Cloudy
3:33 PM 14.0 °F -4.7 °F -0.4 °F 53% 30.08 in 6.0 mi West 23.0 mph 33.4 mph 0.00 in Snow Light Snow
3:43 PM 14.0 °F -4.3 °F -2.2 °F 49% 30.08 in 10.0 mi WNW 21.9 mph 29.9 mph 0.00 in   Mostly Cloudy
3:53 PM 12.9 °F -6.5 °F -0.0 °F 56% 30.14 in 8.0 mi West 24.2 mph - 0.00 in   Mostly Cloudy
4:42 PM 12.2 °F -6.7 °F 1.4 °F 62% 30.10 in 9.0 mi West 21.9 mph 28.8 mph 0.00 in   Overcast
4:53 PM 12.0 °F -6.9 °F 1.0 °F 61% 30.16 in 10.0 mi West 21.9 mph 27.6 mph 0.00 in   Overcast
5:07 PM 10.4 °F -7.7 °F -0.4 °F 62% 30.11 in 10.0 mi West 18.4 mph 25.3 mph N/A   Overcast
5:40 PM 10.4 °F -7.7 °F -2.2 °F 57% 30.11 in 10.0 mi West 18.4 mph 26.5 mph N/A   Overcast
5:53 PM 10.0 °F -8.1 °F -0.9 °F 61% 30.17 in 10.0 mi West 18.4 mph - N/A   Overcast
6:13 PM 10.4 °F -6.6 °F -0.4 °F 62% 30.12 in 10.0 mi West 16.1 mph 25.3 mph N/A   Overcast
6:53 PM 10.0 °F -7.6 °F -0.9 °F 61% 30.18 in 10.0 mi West 17.3 mph 26.5 mph N/A   Overcast
7:53 PM 10.0 °F -8.6 °F -2.9 °F 56% 30.18 in 10.0 mi WSW 19.6 mph 26.5 mph N/A   Overcast
8:53 PM 9.0 °F -10.0 °F -0.0 °F 67% 30.19 in 5.0 mi West 19.6 mph 25.3 mph N/A   Haze
9:10 PM 8.6 °F -11.0 °F -0.4 °F 67% 30.14 in 4.0 mi West 20.7 mph 27.6 mph N/A   Haze
9:19 PM 8.6 °F -8.9 °F 1.4 °F 73% 30.14 in 1.8 mi WSW 16.1 mph 29.9 mph 0.00 in Snow Light Snow
9:33 PM 8.6 °F -10.0 °F 1.4 °F 73% 30.14 in 3.0 mi West 18.4 mph 27.6 mph 0.00 in Snow Light Snow
9:45 PM 8.6 °F -10.5 °F 1.4 °F 73% 30.14 in 1.8 mi WSW 19.6 mph 26.5 mph 0.00 in Snow Light Snow
9:53 PM 8.1 °F -10.2 °F 1.9 °F 76% 30.20 in 1.5 mi WSW 17.3 mph - 0.00 in Snow Light Snow
10:53 PM 8.1 °F -11.2 °F 3.0 °F 80% 30.21 in 1.5 mi WSW 19.6 mph - 0.00 in Snow Light Snow
11:21 PM 8.6 °F -11.0 °F 1.4 °F 73% 30.16 in 2.0 mi West 20.7 mph 25.3 mph 0.00 in Snow Light Snow
11:53 PM 8.1 °F -10.7 °F -0.0 °F 70% 30.22 in 3.0 mi West 18.4 mph - 0.00 in Snow Light Snow